Home   Weather   Conroe   Past weeks
Flag for USA

Past Weather in Conroe, Texas, USA — Yesterday and Last 2 Weeks

Now
68 °F

Overcast.


Feels Like: 68 °F
Forecast: 82 / 67 °F
Wind: No wind

Location: Montgomery County Airport

Current Time: Oct 14, 2019 at 3:09:18 am

Latest Report: Oct 14, 2019 at 1:53 am


Visibility: 10 mi

Pressure: 30.00 "Hg

Humidity: 76%

Dew Point: 60 °F

Location of ConroeLocation

Past Weather in Conroe — Graph

°F

Conroe Temperature Yesterday

Maximum temperature yesterday: 77 °F (at 3:53 pm)
Minimum temperature yesterday: 52 °F (at 12:53 am)
Average temperature yesterday: 65 °F

High & Low Weather Summary for the Past Weeks

 TemperatureHumidityPressure
High93 °F (Sep 30, 2:53 pm)100% (Oct 1, 6:53 am)30.24 "Hg (Oct 1, 6:53 am)
Low50 °F (Oct 11, 5:53 pm)41% (Oct 10, 2:53 pm)29.82 "Hg (Oct 10, 5:53 pm)
Average74 °F80%30.01 "Hg
* Reported Sep 29 1:53 am — Oct 14 1:53 am, Conroe. Weather by CustomWeather, © 2019

Note: Actual official high and low records may vary slightly from our data, if they occured in-between our weather recording intervals... More about our weather records

Advertising

Conroe Weather History for the Previous 24 Hours

Scroll right to see more
 ConditionsComfort  
Time TempWeatherWind HumidityBarometerVisibility
1:53 am
Mon, Oct 14
68 °FOvercast.No wind76%30.00 "Hg10 mi
12:53 am67 °FOvercast.3 mph81%30.00 "Hg10 mi
11:53 pm
Sun, Oct 13
67 °FPassing clouds.No wind81%30.01 "Hg10 mi
10:53 pm67 °FPassing clouds.3 mph79%30.01 "Hg10 mi
9:53 pm69 °FPassing clouds.3 mph76%30.01 "Hg10 mi
8:53 pm68 °FPassing clouds.No wind87%29.99 "Hg10 mi
7:53 pm70 °FPassing clouds.3 mph79%29.98 "Hg10 mi
6:53 pm72 °FMostly cloudy.No wind78%29.97 "Hg10 mi
5:53 pm74 °FOvercast.5 mph69%29.97 "Hg10 mi
4:53 pm76 °FPartly sunny.3 mph58%29.98 "Hg10 mi
3:53 pm77 °FPassing clouds.No wind52%29.98 "Hg10 mi
2:53 pm76 °FMostly cloudy.3 mph50%29.99 "Hg10 mi
1:53 pm73 °FMostly cloudy.No wind48%30.02 "Hg10 mi
12:53 pm73 °FPartly sunny.5 mph48%30.05 "Hg10 mi
11:53 am68 °FPartly sunny.3 mph57%30.08 "Hg10 mi
10:53 am64 °FSunny.3 mph63%30.08 "Hg10 mi
9:53 am61 °FScattered clouds.No wind70%30.08 "Hg10 mi
8:53 am59 °FMostly cloudy.No wind75%30.07 "Hg10 mi
7:53 am57 °FOvercast.No wind83%30.05 "Hg10 mi
6:53 am57 °FOvercast.No wind78%30.03 "Hg10 mi
5:53 am56 °FOvercast.No wind87%30.03 "Hg10 mi
4:53 am56 °FMostly cloudy.No wind84%30.03 "Hg10 mi
3:53 am55 °FClear.No wind90%30.03 "Hg10 mi
Weather by CustomWeather, © 2019

See weather overview